Location: ???????
(55.4362°N, 38.1183°E)
Time: 00:35:02
(UTC+00:00)

METEOR M2 - Pass Details

Date: 02 December 2021
Orbit: 818 x 827 km, 98.4° (Epoch: 28 January)

Event Time Altitude Azimuth Distance (km) Brightness Sun altitude
Rises 03:29:02 0° 25° (NNE) 3,373 ? -16.3°
Reaches altitude 10° 03:32:17 10° 45° (NE) 2,432 ? -15.8°
Maximum altitude 03:35:44 17° 85° (E) 1,976 ? -15.4°
Drops below altitude 10° 03:39:08 10° 125° (SE) 2,418 ? -14.9°
Sets 03:42:21 0° 145° (SE) 3,343 ? -14.5°
